FW1312 Weather Reports


Display with metric or nautical units.
time (UTC)temp
F
wind
direction
speed
MPH
gust
MPH
rain 1hr
in
rain 24hr
in
rain mn
in
humidity
%
barometer
mb
20260509150030 74 215 1.0 6.0 0.00 0.00 0.00 91 1010.3
20260509144511 74 216 2.0 7.0 0.00 0.00 0.00 91 1010.0
20260509143053 74 176 2.0 7.0 0.00 0.00 0.00 91 1009.4
20260509141519 73 156 1.0 5.0 0.00 0.00 0.00 91 1009.3
20260509140019 73 224 2.0 8.0 0.00 0.00 0.00 91 1009.5
20260509134505 73 196 1.0 8.0 0.00 0.00 0.00 91 1009.4
20260509034535 73 130 1.0 3.0 0.00 0.38 0.38 87 1009.1
20260509033024 73 98 1.0 8.0 0.00 0.38 0.38 87 1008.7
20260509031548 73 138 3.0 9.0 0.00 0.38 0.38 87 1008.7
20260509030036 73 126 4.0 9.0 0.00 0.38 0.38 87 1008.5
20260509024513 74 134 3.0 8.0 0.00 0.38 0.38 87 1008.3
20260509023001 74 151 1.0 4.0 0.00 0.38 0.38 87 1008.5
20260509021539 74 144 0.0 3.0 0.00 0.38 0.38 86 1008.4
20260509014528 75 166 2.0 8.0 0.00 0.38 0.38 87 1008.3
20260509013016 75 147 4.0 8.0 0.00 0.38 0.38 86 1008.2
20260509011541 75 126 2.0 8.0 0.00 0.38 0.38 87 1008.2
20260509004533 76 126 5.0 8.0 0.00 0.38 0.38 87 1008.1
20260509003011 76 106 3.0 6.0 0.00 0.38 0.38 87 1008.1
20260509001548 76 110 4.0 9.0 0.00 0.38 0.38 87 1008.2
20260509000042 76 115 3.0 8.0 0.00 0.38 0.38 87 1008.2
20260508234532 77 96 2.0 9.0 0.00 0.38 0.38 87 1008.2
20260508233036 77 134 3.0 9.0 0.00 0.38 0.38 87 1008.1
20260508231607 77 63 7.0 10.0 0.00 0.38 0.38 87 1008.1
20260508230015 78 110 5.0 11.0 0.00 0.38 0.38 87 1008.4
20260508224512 77 67 3.0 5.0 0.00 0.38 0.38 87 1008.4
20260508223105 77 101 2.0 7.0 0.00 0.38 0.38 88 1008.4
20260508221535 77 91 1.0 4.0 0.00 0.38 0.38 88 1008.5
20260508220055 77 106 0.0 3.0 0.00 0.38 0.38 88 1008.7
20260508214514 77 96 3.0 8.0 0.00 0.38 0.38 88 1008.6
20260508213044 77 173 1.0 6.0 0.00 0.38 0.38 89 1008.7
20260508211540 76 101 0.0 4.0 0.00 0.38 0.38 89 1008.9
20260508210040 76 84 2.0 4.0 0.00 0.38 0.38 89 1009.2
20260508204606 76 84 5.0 7.0 0.00 0.38 0.38 89 1009.3
20260508203019 76 67 1.0 5.0 0.00 0.38 0.38 89 1009.6
20260508201508 76 94 3.0 9.0 0.00 0.38 0.38 89 1009.7
20260508200035 75 105 3.0 7.0 0.00 0.38 0.38 89 1009.9
20260508194508 74 81 2.0 9.0 0.00 0.38 0.38 89 1010.0
20260508193034 74 71 4.0 6.0 0.00 0.38 0.38 89 1010.4
20260508191551 73 70 3.0 6.0 0.00 0.38 0.38 89 1010.5
20260508190036 72 117 3.0 6.0 0.00 0.38 0.38 89 1010.9
20260508184509 72 94 2.0 5.0 0.00 0.38 0.38 89 1011.0
20260508183053 71 89 2.0 6.0 0.00 0.38 0.38 89 1011.2
20260508181525 71 60 2.0 8.0 0.00 0.38 0.38 89 1011.3
20260508180031 71 98 3.0 7.0 0.00 0.38 0.38 89 1011.5
20260508174547 70 34 2.0 6.0 0.00 0.38 0.38 89 1011.7
20260508173030 70 51 3.0 6.0 0.00 0.38 0.38 89 1012.0
20260508171603 68 47 4.0 8.0 0.00 0.38 0.38 89 1011.9
20260508170014 67 59 4.0 9.0 0.00 0.38 0.38 89 1012.1
20260508164601 66 360 3.0 6.0 0.00 0.38 0.38 89 1012.2
20260508163024 65 30 3.0 5.0 0.00 0.38 0.38 88 1012.6
20260508161521 65 40 0.0 4.0 0.00 0.38 0.38 88 1012.7
20260508160043 64 74 3.0 7.0 0.00 0.38 0.38 88 1012.8
20260508154531 64 44 3.0 6.0 0.00 0.38 0.38 88 1012.7
20260508153039 63 77 5.0 9.0 0.00 0.38 0.38 88 1013.1
20260508151544 63 89 4.0 8.0 0.00 0.38 0.38 88 1013.2